Location: Arapaho Elementary School
(32.9607°N, 96.7625°W)
Time: 03:00:45
(UTC+00:00)

CZ-2C R/B - Pass Details

Date: 10 July 2022
Orbit: 783 x 871 km, 98.2° (Epoch: 14 August)

Event Time Altitude Azimuth Distance (km) Brightness Sun altitude
Rises 09:31:50 0° 118° (ESE) 3,433 6.1 -20.2°
Reaches altitude 10° 09:35:23 10° 94° (E) 2,509 5.7 -19.7°
Maximum altitude 09:38:10 14° 64° (ENE) 2,230 5.9 -19.3°
Drops below altitude 10° 09:40:58 10° 34° (NE) 2,521 6.4 -18.8°
Sets 09:44:32 0° 11° (N) 3,462 6.8 -18.3°
